Regional Weather Roundup
Issued by NWS

Home | Current Version | Previous Version | Text Only | Print | Product List | Glossary On
Versions: 1 2 3 4 5 6 7 8 9 10 11 12 13 14 15 16 17 18 19 20 21 22 23 24 25 26 27 28 29 30 31 32 33 34 35 36 37 38 39 40 41 42 43 44 45 46 47 48 49 50
000
ASUS43 KDTX 260510
RWRMI
MICHIGAN HOURLY REGIONAL WEATHER ROUNDUP
NATIONAL WEATHER SERVICE DETROIT/PONTIAC MI
ISSUED BY NATIONAL WEATHER SERVICE GRAND RAPIDS MI
100 AM EDT MON JUN 26 2017

NOTE: "FAIR" INDICATES FEW OR NO CLOUDS BELOW 12,000 FEET WITH NO
SIGNIFICANT WEATHER AND/OR OBSTRUCTION TO VISIBILITY.

MIZ047>049-052>055-059>063-066>070-074>076-081>083-260600-
SOUTHEAST LOWER MICHIGAN

CITY           SKY/WX    TMP DP  RH WIND       PRES   REMARKS
ADRIAN         CLEAR     55  47  74 CALM      30.06F
ALMA           PTCLDY    56  52  85 SW6       30.02S
ANN ARBOR      CLEAR     46  45  96 SW3       30.04F
BAD AXE        CLOUDY    56  55  94 CALM      29.99F
DETROIT CITY   PTCLDY    61  48  62 SW3       30.03F
DETROIT        PTCLDY    58  47  66 SW5       30.04F
FLINT          CLOUDY    58  52  80 SW5       30.02F
GROSSE ILE     CLEAR     59  46  62 W3        30.03F
HILLSDALE      CLEAR     52  45  76 CALM      30.06S
HOWELL         CLEAR     55  46  69 SW3       30.03F

CITY           SKY/WX    TMP DP  RH WIND       PRES   REMARKS
JACKSON          N/A     54  48  80 SW6       30.05S
LANSING        CLEAR     57  48  72 SW5       30.04S
MASON          CLEAR     56  49  75 CALM      30.04F
MONROE         CLEAR     54  49  82 CALM      30.04F
MT. CLEMENS    CLOUDY    60  54  80 SW3       30.01S
PONTIAC        PTCLDY    57  50  77 W5        30.01F
PORT HOPE        N/A     60  54  80 CALM      29.97F
PORT HURON     CLOUDY    57  52  82 CALM      30.02S
TRI CITIES     CLOUDY    60  55  83 SW7       30.01S
YPSILANTI      CLEAR     56  48  74 W6        30.04F
$$
MIZ043>046-050>051-056>058-064>065-071>073-077>080-260600-
SOUTHWEST LOWER MICHIGAN

CITY           SKY/WX    TMP DP  RH WIND       PRES   REMARKS
BATTLE CREEK   CLEAR     56  49  77 W7        30.06S
BENTON HARBOR  PTCLDY    63  50  62 W17G26    30.08S
BIG RAPIDS     PTCLDY    52  49  90 CALM      30.00S
COLDWATER      MOCLDY    57  48  73 SW5       30.07S
HOLLAND        CLEAR     60  52  74 NW9       30.06R
GRAND RAPIDS   CLEAR     57  53  86 W7        30.03S
KALAMAZOO      MOCLDY    60  48  64 W6        30.06F
MARSHALL       CLOUDY    55  48  77 SW3       30.05F
MOUNT PLEASANT PTCLDY    58  51  78 SW3       30.00S
MUSKEGON       CLOUDY    60  52  74 W14G21    30.04S
STURGIS        CLOUDY    60  50  70 W5        30.07S
$$
MIZ016>042-260600-
NORTHERN LOWER MICHIGAN

CITY           SKY/WX    TMP DP  RH WIND       PRES   REMARKS
ALPENA         CLOUDY    57  56  96 CALM      29.97F
BEAVER ISLAND  CLOUDY    54  54  97 CALM      29.96F
BELLAIRE       MOCLDY    51  50  95 CALM      29.97F
CADILLAC       PTCLDY    52  50  95 W3        29.99F
CHARLEVOIX     CLOUDY    56  55  95 CALM      29.99F
GAYLORD        CLEAR     52  47  83 CALM      29.98S
HOUGHTON LAKE  MOCLDY    54  52  93 CALM      30.00S
MANISTEE       CLOUDY    57  53  86 W9        29.99F
OSCODA         RAIN      57  55  93 W5        29.97F
PELLSTON       CLOUDY    53  50  89 CALM      29.97F
TRAVERSE CITY  CLOUDY    57  53  86 CALM      29.96S
LUDINGTON      CLOUDY    58  53  84 W9        30.01R
$$
MIZ007>008-015-260600-
EASTERN UPPER MICHIGAN

CITY           SKY/WX    TMP DP  RH WIND       PRES   REMARKS
KINROSS        PTCLDY    52  50  93 N3        29.96F
MACKINAC ISLAN CLOUDY    55  55 100 CALM      29.96F
NEWBERRY       CLOUDY    51  50  97 N3        29.96S
S. S. MARIE    MOCLDY    53  51  93 CALM      29.96S
$$
MIZ004>006-011>014-085-260600-
CENTRAL UPPER MICHIGAN

CITY           SKY/WX    TMP DP  RH WIND       PRES   REMARKS
MANISTIQUE     LGT RAIN  52  49  89 N3        29.95F
ESCANABA       CLOUDY    53  52  96 W5        29.97F
MENOMINEE      CLEAR     53  51  93 CALM      30.00S
SAWYER-GWINN   RAIN      50  49  96 N3        29.98F
$$
MIZ001>003-009>011-084-260600-
WESTERN UPPER MICHIGAN

CITY           SKY/WX    TMP DP  RH WIND       PRES   REMARKS
IRON MOUNTAIN  CLOUDY    51  47  86 NW7       29.99S
HOUGHTON       LGT RAIN  47  44  90 NW9       29.99S
COPPER HARBOR    N/A     48  47  96 VRB5      29.99F
IRONWOOD       CLOUDY    47  46  97 NW12G20   30.05R
$$

ABBREVIATIONS USED IN REMARKS
   TC - TEMPERATURE IN CELSIUS
  WCI - WIND CHILL INDEX
   HX - HEAT INDEX
  VSB - VISIBILITY





USA.gov is the U.S. government's official web portal to all federal, state and local government web resources and services.